Location: Niagara
(43.2500°N, 79.0670°W)
Time: 19:22:26
(UTC-04:00)

ISS - Pass Details

Date: 08 October 2017
Orbit: 401 x 408 km, 51.6° (Epoch: 21 October)

Event Time Altitude Azimuth Distance (km) Brightness Sun altitude
Rises 21:25:27 0° 303° (WNW) 2,330 1.2 -29.7°
Reaches altitude 10° 21:27:33 10° 304° (NW) 1,468 -0.1 -30.0°
Enters shadow 21:28:00 13° 305° (NW) 1,285 -0.5 -30.1°
